Location: Unspecified
(0.0000°N, 0.0000°E)
Time: 13:02:50
(UTC+00:00)

Envisat - Pass Details

Date: 23 May 2017
Orbit: 764 x 766 km, 98.2° (Epoch: 25 May)

Event Time Altitude Azimuth Distance (km) Brightness Sun altitude
Exits shadow 19:48:22 11° 30° (NNE) 2,216 5.3 -25.9°
Drops below altitude 10° 19:48:38 10° 28° (NNE) 2,292 5.4 -26.0°
Sets 19:51:24 0° 13° (NNE) 3,214 6.3 -26.6°
